TimePDT,TemperatureF,Dew PointF,Humidity,Sea Level PressureIn,VisibilityMPH,Wind Direction,Wind SpeedMPH,Gust SpeedMPH,PrecipitationIn,Events,Conditions,WindDirDegrees,DateUTC
12:21 AM,50.0,48.2,94,30.03,10.0,ESE,4.6,-,N/A,,Mostly Cloudy,110,2013-05-13 07:21:00
12:53 AM,50.0,50.0,100,30.04,10.0,Calm,Calm,-,N/A,,Overcast,0,2013-05-13 07:53:00
1:53 AM,50.0,48.9,96,30.02,10.0,Calm,Calm,-,N/A,,Overcast,0,2013-05-13 08:53:00
2:53 AM,50.0,48.9,96,30.03,10.0,Calm,Calm,-,N/A,,Overcast,0,2013-05-13 09:53:00
3:53 AM,50.0,48.9,96,30.04,10.0,Calm,Calm,-,N/A,,Overcast,0,2013-05-13 10:53:00
4:53 AM,48.9,48.9,100,30.02,10.0,Calm,Calm,-,N/A,,Mostly Cloudy,0,2013-05-13 11:53:00
5:53 AM,50.0,50.0,100,30.02,10.0,Calm,Calm,-,N/A,,Overcast,0,2013-05-13 12:53:00
6:10 AM,50.0,50.0,100,30.01,10.0,South,3.5,-,N/A,,Overcast,170,2013-05-13 13:10:00
6:37 AM,51.8,50.0,94,30.00,6.0,Calm,Calm,-,N/A,,Overcast,0,2013-05-13 13:37:00
6:53 AM,50.0,50.0,100,30.01,5.0,Calm,Calm,-,N/A,,Overcast,0,2013-05-13 13:53:00
7:33 AM,51.8,51.8,100,30.00,6.0,Calm,Calm,-,N/A,,Overcast,0,2013-05-13 14:33:00
7:53 AM,53.1,53.1,100,30.00,10.0,Calm,Calm,-,N/A,,Overcast,0,2013-05-13 14:53:00
8:53 AM,54.0,53.1,97,29.99,10.0,SSE,4.6,-,N/A,,Overcast,160,2013-05-13 15:53:00
9:07 AM,57.2,55.4,94,29.98,10.0,SSE,4.6,-,N/A,,Overcast,150,2013-05-13 16:07:00
9:13 AM,57.2,53.6,88,29.98,10.0,SE,4.6,-,N/A,,Overcast,130,2013-05-13 16:13:00
9:43 AM,55.4,53.6,94,29.97,10.0,ESE,3.5,-,N/A,,Overcast,120,2013-05-13 16:43:00
9:53 AM,55.0,53.1,93,29.97,10.0,ESE,5.8,-,N/A,,Overcast,110,2013-05-13 16:53:00
10:06 AM,53.6,51.8,94,29.96,10.0,ESE,5.8,-,N/A,,Overcast,110,2013-05-13 17:06:00
10:13 AM,53.6,53.6,100,29.96,10.0,Variable,3.5,-,N/A,,Overcast,0,2013-05-13 17:13:00
10:31 AM,57.2,53.6,88,29.95,10.0,ESE,5.8,-,N/A,,Scattered Clouds,110,2013-05-13 17:31:00
10:53 AM,55.9,52.0,87,29.94,10.0,SE,6.9,-,N/A,,Clear,140,2013-05-13 17:53:00
11:53 AM,59.0,53.1,81,29.93,10.0,SSE,5.8,-,N/A,,Partly Cloudy,150,2013-05-13 18:53:00
1:53 PM,55.9,53.1,90,29.92,6.0,WSW,3.5,-,0.00,Rain,Light Rain,250,2013-05-13 20:53:00
2:53 PM,57.9,55.0,90,29.93,10.0,WSW,8.1,-,0.01,,Mostly Cloudy,240,2013-05-13 21:53:00
3:53 PM,54.0,48.0,80,29.97,10.0,SW,10.4,19.6,0.00,Rain,Light Rain,230,2013-05-13 22:53:00
5:53 PM,52.0,45.0,77,30.01,10.0,SW,12.7,23.0,0.00,,Partly Cloudy,220,2013-05-14 00:53:00
6:53 PM,52.0,43.0,71,30.06,10.0,SW,13.8,23.0,N/A,,Mostly Cloudy,220,2013-05-14 01:53:00
7:53 PM,50.0,43.0,77,30.12,10.0,SW,10.4,17.3,N/A,,Clear,230,2013-05-14 02:53:00
8:53 PM,50.0,42.1,74,30.14,10.0,Variable,4.6,-,N/A,,Overcast,0,2013-05-14 03:53:00
9:53 PM,48.9,43.0,80,30.17,10.0,SW,4.6,-,N/A,,Overcast,220,2013-05-14 04:53:00
10:53 PM,46.9,42.1,83,30.19,10.0,WSW,4.6,-,N/A,,Clear,240,2013-05-14 05:53:00
11:53 PM,48.0,42.1,80,30.18,10.0,SW,8.1,-,N/A,,Mostly Cloudy,230,2013-05-14 06:53:00